[[{"header":{"parameterUnit":"m.s-1","parameterCategory":1,"la1":30.2992,"la2":30.254,"lo1":-89.0895,"lo2":-89.0443,"dy":0.0025,"dx":0.0025,"nx":19,"ny":19,"refTime":"2026-05-21T09:00:00:Z","depth":0,"parameterNumber":2,"parameterNumberName":"U-component_of_WINDS"},"data":[0,0,0,-2.2533,-2.2536,-2.2659,-2.2659,-2.2816,-2.2817,0,0,0,0,0,0,0,0,0,0,0,-2.2493,-2.2494,-2.2533,-2.2536,-2.2659,-2.2659,-2.2816,-2.2817,0,0,0,0,0,0,0,0,0,0,0,-2.2493,-2.2494,-2.2495,-2.2537,-2.2659,-2.2659,-2.2815,-2.2723,0,0,0,0,0,0,0,0,0,0,-2.2604,-2.2563,-2.2494,-2.2495,-2.2537,-2.2659,-2.266,-2.2719,-2.2729,-2.2759,0,-2.2782,0,-2.2802,-2.2827,-2.2828,0,0,0,-2.2539,-2.2555,-2.2591,-2.2495,-2.2538,-2.2658,-2.2604,-2.2725,-2.2736,-2.2772,-2.2784,-2.279,-2.2804,-2.2828,-2.2829,-2.2984,-2.2984,0,0,-2.2532,-2.2514,-2.2583,-2.2598,-2.2576,-2.26,-2.2608,-2.2732,-2.2744,-2.2785,-2.2794,-2.2807,-2.2829,-2.283,-2.2983,-2.2984,0,0,0,-2.2511,-2.2509,-2.2542,-2.2592,-2.2614,-2.2604,-2.2613,-2.2739,-2.2751,-2.2795,-2.2809,-2.283,-2.2832,-2.2983,-2.2984,-2.2992,0,0,0,-2.2507,-2.2497,-2.2539,-2.2529,-2.2611,-2.2677,-2.2617,-2.2743,-2.2757,-2.2808,-2.283,-2.2833,-2.2982,-2.2983,-2.2991,-2.2999,0,0,0,-2.2487,-2.2494,-2.2511,-2.2528,-2.258,-2.2676,-2.2695,-2.2746,-2.2765,-2.2828,-2.2834,-2.2982,-2.2983,-2.2989,-2.2997,-2.3034,0,0,0,-2.246,-2.2517,-2.251,-2.258,-2.2579,-2.268,-2.2694,-2.2771,-2.2826,-2.2831,-2.2982,-2.2983,-2.2989,-2.2995,-2.3032,-2.306,-2.307,0,0,-2.2522,-2.2524,-2.2567,-2.2564,-2.2661,-2.2662,-2.2762,-2.2831,-2.2856,-2.2941,-2.2945,-2.2991,-2.2997,-2.3033,-2.3137,-2.3145,0,0,0,-2.258,-2.261,-2.264,-2.2691,-2.2744,-2.2791,-2.2846,-2.2873,-2.2945,-2.2894,-2.3016,-2.302,-2.3042,-2.3057,-2.3063,-2.3084,-2.299,-2.2989,-2.2989,-2.264,-2.2667,-2.274,-2.2782,-2.2832,-2.2889,-2.2933,-2.2978,-2.2992,-2.3021,-2.3045,-2.3104,-2.312,-2.3125,-2.3146,-2.3064,-2.3064,-2.3064,-2.3064,-2.2732,-2.2779,-2.2797,-2.2873,-2.2903,-2.2969,-2.3028,-2.3036,-2.3103,-2.3087,-2.3109,-2.3087,-2.3133,-2.3153,-2.3065,-2.3065,-2.3064,-2.3064,-2.3064,-2.2773,-2.28,-2.283,-2.2907,-2.2965,-2.3008,-2.3071,-2.3097,-2.3122,-2.3143,-2.3172,-2.3172,-2.3174,-2.3156,-2.3156,-2.3156,-2.3156,-2.3156,-2.3157,-2.2802,-2.2836,-2.2885,-2.2948,-2.2985,-2.3037,-2.3098,-2.3136,-2.3185,-2.3199,-2.3199,-2.321,-2.3133,-2.3111,-2.316,-2.3159,-2.3159,-2.3158,-2.3158,-2.2882,-2.2869,-2.2943,-2.298,-2.3058,-2.3114,-2.3147,-2.3222,-2.3258,-2.3289,-2.3297,-2.3236,-2.324,-2.3235,-2.3218,-2.3291,-2.3291,-2.3291,-2.3291,-2.2915,-2.292,-2.3003,-2.3061,-2.3121,-2.3159,-2.3246,-2.3295,-2.3345,-2.3369,-2.3363,-2.3344,-2.3337,-2.3345,-2.3338,-2.3322,-2.342,-2.342,-2.342,-2.2966,-2.2978,-2.3045,-2.3091,-2.3155,-2.3209,-2.3292,-2.336,-2.3414,-2.3426,-2.3389,-2.3384,-2.3352,-2.334,-2.3348,-2.3336,-2.3308,0,0]},{"header":{"parameterUnit":"m.s-1","parameterCategory":1,"la1":30.2992,"la2":30.254,"lo1":-89.0895,"lo2":-89.0443,"dy":0.0025,"dx":0.0025,"nx":19,"ny":19,"refTime":"2026-05-21T09:00:00:Z","depth":0,"parameterNumber":3,"parameterNumberName":"V-component_of_WINDS"},"data":[0,0,0,6.1921,6.1923,6.2037,6.2038,6.2192,6.2193,0,0,0,0,0,0,0,0,0,0,0,6.1896,6.1898,6.1921,6.1924,6.2037,6.2038,6.2192,6.2193,0,0,0,0,0,0,0,0,0,0,0,6.1896,6.1898,6.1899,6.1924,6.2037,6.2038,6.2191,6.2101,0,0,0,0,0,0,0,0,0,0,6.1989,6.1977,6.1897,6.1899,6.1925,6.2037,6.2038,6.2097,6.2107,6.2145,0,6.2186,0,6.2193,6.2205,6.2205,0,0,0,6.1915,6.1968,6.1991,6.19,6.1926,6.2037,6.1984,6.2102,6.2114,6.2159,6.2188,6.2194,6.2195,6.2206,6.2207,6.2466,6.2468,0,0,6.1909,6.1921,6.1983,6.1999,6.1987,6.198,6.1987,6.2109,6.214,6.2189,6.2197,6.2198,6.2207,6.2208,6.2465,6.2467,0,0,0,6.1897,6.1917,6.1936,6.1993,6.2013,6.1984,6.1992,6.2134,6.214,6.2198,6.22,6.2208,6.221,6.2463,6.2465,6.2557,0,0,0,6.1892,6.191,6.1934,6.1942,6.2012,6.2076,6.2015,6.2132,6.2145,6.2199,6.2208,6.2212,6.2461,6.2464,6.2551,6.2597,0,0,0,6.1886,6.1909,6.1929,6.1943,6.1993,6.2074,6.2086,6.2134,6.2146,6.2205,6.2212,6.246,6.2464,6.2545,6.2588,6.2669,0,0,0,6.1881,6.2007,6.1931,6.2072,6.1992,6.2132,6.2085,6.2188,6.225,6.2209,6.2462,6.2465,6.2543,6.2582,6.2663,6.2738,6.2772,0,0,6.2046,6.2027,6.211,6.2045,6.2202,6.2113,6.2282,6.2325,6.2318,6.2416,6.2422,6.2553,6.2587,6.2668,6.2955,6.2982,0,0,0,6.2166,6.2225,6.2264,6.2326,6.2365,6.2401,6.2418,6.2434,6.2517,6.2373,6.2604,6.2624,6.2671,6.2706,6.2728,6.2767,6.2483,6.2482,6.2482,6.2416,6.2403,6.2538,6.2539,6.2599,6.2616,6.2662,6.2686,6.2653,6.2708,6.2736,6.2913,6.2955,6.2972,6.3012,6.2776,6.2777,6.2777,6.2777,6.2656,6.2737,6.2693,6.2808,6.2793,6.2887,6.2908,6.2882,6.2965,6.289,6.293,6.2848,6.3001,6.3035,6.2784,6.2783,6.2782,6.2781,6.2781,6.2817,6.2854,6.2874,6.2962,6.303,6.3025,6.3109,6.3091,6.3074,6.3114,6.3141,6.3139,6.3134,6.3129,6.3129,6.313,6.313,6.3131,6.3131,6.2975,6.2995,6.307,6.3123,6.316,6.3206,6.3225,6.326,6.3293,6.3273,6.3273,6.3234,6.302,6.2966,6.3141,6.3139,6.3138,6.3137,6.3136,6.3221,6.3163,6.3278,6.3316,6.3376,6.3445,6.3422,6.3494,6.352,6.3561,6.3514,6.336,6.3337,6.3319,6.3274,6.3518,6.3518,6.3518,6.3518,6.3356,6.3344,6.3458,6.3519,6.3577,6.3569,6.3695,6.3711,6.3717,6.3731,6.3694,6.3633,6.3615,6.3603,6.3579,6.3536,6.3841,6.3842,6.3842,6.3505,6.3499,6.3612,6.3621,6.3667,6.3706,6.3824,6.3893,6.3887,6.3855,6.3742,6.3728,6.363,6.3599,6.3562,6.3525,6.3446,0,0]}]]